Regional Weather Roundup
Issued by NWS

Home | Current Version | Previous Version | Graphics & Text | Print | Product List | Glossary Off
Versions: 1 2 3 4 5 6 7 8 9 10 11 12 13 14 15 16 17 18 19 20 21 22 23 24 25 26 27 28 29 30 31 32 33 34 35 36 37 38 39 40 41 42 43 44 45 46 47 48 49 50

000
ASUS43 KTOP 221208
RWRKS

WEATHER ROUNDUP FOR KANSAS
NATIONAL WEATHER SERVICE GOODLAND KS
700 AM CDT WED OCT 22 2014

NOTE:  "FAIR" INDICATES FEW OR NO CLOUDS BELOW 12,000 FEET WITH NO
SIGNIFICANT WEATHER AND/OR OBSTRUCTIONS TO VISIBILITY.

KSZ001>006-013>018-027>032-041>047-221300-
NORTHWEST KANSAS

CITY           SKY/WX    TMP DP  RH WIND       PRES   REMARKS
GOODLAND       PTCLDY    52  47  83 S9        29.98R
6HR MIN TEMP:  50; 6HR MAX TEMP:  54;

HAYS           CLEAR     54  46  76 SE6       30.02S
HILL CITY      PTCLDY    58  50  75 S6        30.00R
6HR MIN TEMP:  58; 6HR MAX TEMP:  62;

RUSSELL        CLEAR     56  52  86 S9        30.02R
6HR MIN TEMP:  56; 6HR MAX TEMP:  62;

$$

KSZ061>065-074>080-084>089-221300-
SOUTHWEST KANSAS

CITY           SKY/WX    TMP DP  RH WIND       PRES   REMARKS
DODGE CITY     CLEAR     53  48  83 S10       30.04S
6HR MIN TEMP:  53; 6HR MAX TEMP:  60;

ELKHART          N/A     55  49  80 S9          N/A
GARDEN CITY    CLOUDY    57  50  77 S13       30.00S
6HR MIN TEMP:  57; 6HR MAX TEMP:  60;

GREAT BEND     CLEAR     55  48  76 S9        30.05S
LIBERAL        CLOUDY    59  48  67 S10       30.04S
PRATT          CLEAR     52  50  93 S7        30.08S
$$

KSZ066>073-081>083-090>101-221300-
SOUTHEAST KANSAS

CITY           SKY/WX    TMP DP  RH WIND       PRES   REMARKS
CHANUTE        CLOUDY    57  50  77 SE6       30.15R
6HR MIN TEMP:  54; 6HR MAX TEMP:  58;

COFFEYVILLE    MOCLDY    56  53  90 CALM      30.14R
6HR MIN TEMP:  53; 6HR MAX TEMP:  59;

HUTCHINSON     CLEAR     55  53  93 SE6       30.09R FOG
6HR MIN TEMP:  55; 6HR MAX TEMP:  63;

MEDICINE LODGE   N/A     56  53  90 SE6       30.08R
NEWTON         CLEAR     55  50  82 SE8       30.12R
PARSONS        MOCLDY    60  54  80 CALM      30.15R
6HR MIN TEMP:  58; 6HR MAX TEMP:  63;

WICHITA INTL   CLEAR     58  56  93 SE7       30.10R
6HR MIN TEMP:  58; 6HR MAX TEMP:  65;

WICHITA JABRA  FOG       54  54 100 SE3       30.10R VSB 1/4
6HR MIN TEMP:  54; 6HR MAX TEMP:  62;

WICHITA MCCONL CLEAR     59  59 100 SE6       30.11R
WINFIELD       CLEAR     59  58  96 SE5       30.12R
6HR MIN TEMP:  59; 6HR MAX TEMP:  64;

$$

KSZ007>012-019>026-033>040-048>060-102>105-221300-
NORTHEAST KANSAS

CITY           SKY/WX    TMP DP  RH WIND       PRES   REMARKS
CONCORDIA      CLEAR     56  55  97 SE13      30.06R
6HR MIN TEMP:  56; 6HR MAX TEMP:  62;

EMPORIA        PTCLDY    51  48  89 SE5       30.13R
6HR MIN TEMP:  51; 6HR MAX TEMP:  57;

LAWRENCE       PTCLDY    51  46  83 E8        30.16R
6HR MIN TEMP:  48; 6HR MAX TEMP:  56;

MANHATTAN      CLEAR     58  50  75 SE8       30.10R
6HR MIN TEMP:  56; 6HR MAX TEMP:  62;

MARYSVILLE     CLEAR     54  45  71 SE9       30.09S
OLATHE IND     CLOUDY    54  46  74 SE9       30.17R
6HR MIN TEMP:  54; 6HR MAX TEMP:  56;

OLATHE EXE     MOCLDY    53  47  79 SE8       30.17R
6HR MIN TEMP:  53; 6HR MAX TEMP:  56;

SALINA         CLEAR     59  55  87 SE9       30.07R
6HR MIN TEMP:  58; 6HR MAX TEMP:  65;

TOPEKA BILLARD PTCLDY    54  47  77 E6        30.15R
6HR MIN TEMP:  53; 6HR MAX TEMP:  58;

TOPEKA FORBES  PTCLDY    54  46  74 SE7       30.13R
6HR MIN TEMP:  54; 6HR MAX TEMP:  56;

$$



USA.gov is the U.S. government's official web portal to all federal, state and local government web resources and services.